Volver al catálogo

DELTA 1 R/B

ActivoSSO
NORAD 2758·ROCKET BODY·🇺🇸 United States

Lanzado Apr 20, 1967 desde Vandenberg Space Force Base

Loading…

Próximos Pases (próximas 24 horas)

TLE

ActualizadoSource: Space-Track

Época: Sep 14, 2026, 17:11 UTC

1 02758U 67036B   26257.71635132 -.00000021  00000-0  13491-3 0  9999
2 02758 101.8363 167.7620 0040777 151.5612 208.7705 12.68938626750643

Sigue DELTA 1 R/B en tiempo real con AllMySat

Download on the App Store